(154949) = 2004 TF78

Discovered at Anderson Mesa on 2004-10-04 by LONEOS.

Orbit

Orbit type: Main Belt

Note: WebGL enabled browser required.

epoch2024-03-31.0
epoch JD2460400.5
perihelion date2020-11-21.54608
perihelion JD2459175.04608
argument of perihelion (°)139.59122
ascending node (°)162.64512
inclination (°)1.64514
eccentricity0.1450745
perihelion distance (AU)2.7204425
Tisserand w.r.t. Jupiter3.2
ΔV w.r.t. Earth (km/sec)10.3
semimajor axis (AU)3.1820815
mean anomaly (°)212.78151
mean daily motion (°/day)0.17363490
aphelion distance (AU)3.644
period (years)5.68
P-vector [x]0.53349264
P-vector [y]-0.78322555
P-vector [z]-0.31928567
Q-vector [x]0.84576135
Q-vector [y]0.49781748
Q-vector [z]0.19200388
absolute magnitude15.48
phase slope0.15
uncertainty0
referenceMPEC 2024-E179
observations used546
oppositions17
arc length (days)7584
first opposition used2003
last opposition used2024
residual rms (arc-secs)0.66
perturbers coarse indicatorM-v
perturbers precise indicator003Ek
first observation date used2003-05-31.0
last observation date used2024-03-05.0
computer nameMPCLINUX
JD of orbit computation2456847.701514
perihelion JD uncertainty (days)1.0098E-04
argument of perihelion uncertainty (°)1.6515E-04
ascending node uncertainty (°)1.6435E-04
inclination uncertainty (°)3.8091E-06
eccentricity uncertainty 5.0285E-08
perihelion distance uncertainty (AU)1.8693E-07
Minimum Orbit Intersection Distances (in AU)
for orbit epoch: 2460400.5, reference: E2024-FB1
Mercury2.28082
Venus1.99415
Earth1.7051
Mars1.31125
Jupiter1.57504
Saturn5.44084
Uranus14.8837
Neptune26.4436

Observations

557 total observations over interval: 2003 05 31.28910 – 2024 03 05.199243
These data are available for download (format description).

Date (UT) J2000 RA J2000 Dec Magn Location Ref
2003 05 31.28910 18 16 44.02 -20 58 07.8 16.4 R 807 – Cerro Tololo Observatory, La Serena MPS 172864
2003 05 31.38986 18 16 40.18 -20 58 07.4   807 – Cerro Tololo Observatory, La Serena MPS 172864
2004 09 22.28941 01 12 13.96 +06 21 00.9 20.0   704 – Lincoln Laboratory ETS, New Mexico MPS 119869
2004 09 22.30158 01 12 13.45 +06 20 57.8 20.2   704 – Lincoln Laboratory ETS, New Mexico MPS 119869
2004 09 22.31372 01 12 13.04 +06 20 55.4 20.0   704 – Lincoln Laboratory ETS, New Mexico MPS 119869
2004 09 22.32586 01 12 12.41 +06 20 50.2 19.9   704 – Lincoln Laboratory ETS, New Mexico MPS 119869
2004 09 22.33800 01 12 11.97 +06 20 48.4 20.3   704 – Lincoln Laboratory ETS, New Mexico MPS 119869
2004 10 04.26383 01 03 49.66 +05 22 42.1 19.2 R 699 – Lowell Observatory-LONEOS MPS 117784
2004 10 04.28327 01 03 48.77 +05 22 36.4   699 – Lowell Observatory-LONEOS MPS 117784
2004 10 04.30273 01 03 47.81 +05 22 30.7   699 – Lowell Observatory-LONEOS MPS 117784
2004 10 04.32221 01 03 46.92 +05 22 24.0   699 – Lowell Observatory-LONEOS MPS 117784
2004 10 09.18194 01 00 10.69 +04 57 47.9 19.5 V 691 – Steward Observatory, Kitt Peak-Spacewatch MPS 117784
2004 10 09.20908 01 00 09.44 +04 57 39.9 19.5 V 691 – Steward Observatory, Kitt Peak-Spacewatch MPS 117784
2004 10 09.23598 01 00 08.21 +04 57 31.7 19.4 V 691 – Steward Observatory, Kitt Peak-Spacewatch MPS 117784
2004 10 13.17096 00 57 14.05 +04 37 52.8 19.6 V 691 – Steward Observatory, Kitt Peak-Spacewatch MPS 118544
2004 10 13.19789 00 57 12.85 +04 37 44.8 19.5 V 691 – Steward Observatory, Kitt Peak-Spacewatch MPS 118544
2004 10 13.22479 00 57 11.63 +04 37 36.8 19.5 V 691 – Steward Observatory, Kitt Peak-Spacewatch MPS 118544
2004 11 10.12450 00 41 12.91 +02 52 07.0 19.7 R 695 – Kitt Peak MPS 119869
2004 11 10.19590 00 41 11.35 +02 51 57.7   695 – Kitt Peak MPS 119869
2005 11 26.34548 06 08 45.25 +21 15 50.4   691 – Steward Observatory, Kitt Peak-Spacewatch MPS 172864
2005 11 26.36298 06 08 44.54 +21 15 50.4   691 – Steward Observatory, Kitt Peak-Spacewatch MPS 172864
2005 11 26.38048 06 08 43.82 +21 15 50.2   691 – Steward Observatory, Kitt Peak-Spacewatch MPS 172864
2005 12 08.22969 05 59 53.75 +21 14 37.5 20.3 V 691 – Steward Observatory, Kitt Peak-Spacewatch MPS 172864
2005 12 08.25494 05 59 52.56 +21 14 37.0 20.8 V 691 – Steward Observatory, Kitt Peak-Spacewatch MPS 172864
2005 12 08.28011 05 59 51.29 +21 14 37.2 20.6 V 691 – Steward Observatory, Kitt Peak-Spacewatch MPS 172864
2005 12 28.13390 05 43 05.69 +21 12 41.0 20.7 V 691 – Steward Observatory, Kitt Peak-Spacewatch MPS 172864
2005 12 28.15126 05 43 04.83 +21 12 40.7 20.9 V 691 – Steward Observatory, Kitt Peak-Spacewatch MPS 172864
2005 12 28.16870 05 43 03.94 +21 12 41.0 20.7 V 691 – Steward Observatory, Kitt Peak-Spacewatch MPS 172864
2006 12 01.45358 10 06 04.60 +10 46 19.8 22.2 V G96 – Mt. Lemmon Survey MPS 190489
2006 12 01.46209 10 06 04.82 +10 46 18.9 21.3 V G96 – Mt. Lemmon Survey MPS 190489
2006 12 01.47075 10 06 04.96 +10 46 18.3 21.7 V G96 – Mt. Lemmon Survey MPS 190489
2006 12 01.47922 10 06 05.18 +10 46 17.5 21.4 V G96 – Mt. Lemmon Survey MPS 190489
2007 01 27.42447 09 56 06.83 +11 43 56.5 20.8 V 691 – Steward Observatory, Kitt Peak-Spacewatch MPS 198128
2007 01 27.44251 09 56 06.15 +11 44 00.2 21.0 V 691 – Steward Observatory, Kitt Peak-Spacewatch MPS 198128
2007 01 27.46055 09 56 05.41 +11 44 03.9 21.2 V 691 – Steward Observatory, Kitt Peak-Spacewatch MPS 198128
2007 02 13.29375 09 44 00.27 +12 51 29.8 20.4 V G96 – Mt. Lemmon Survey MPS 199478
2007 02 13.30263 09 43 59.88 +12 51 32.6 19.7 V G96 – Mt. Lemmon Survey MPS 199478
2007 02 13.31155 09 43 59.48 +12 51 34.8 20.0 V G96 – Mt. Lemmon Survey MPS 199478
2007 02 13.32076 09 43 59.01 +12 51 36.6 20.3 V G96 – Mt. Lemmon Survey MPS 199478
2007 02 23.22173 09 36 35.17 +13 32 13.9 20.7 V G96 – Mt. Lemmon Survey MPS 201514
2007 02 23.22719 09 36 34.95 +13 32 15.7 20.6 V G96 – Mt. Lemmon Survey MPS 201514
2007 02 23.23267 09 36 34.70 +13 32 16.8 20.8 V G96 – Mt. Lemmon Survey MPS 201514
2007 02 23.23816 09 36 34.45 +13 32 18.3 20.8 V G96 – Mt. Lemmon Survey MPS 201514
2007 03 09.11409 09 27 23.16 +14 22 28.7 20.8 V 691 – Steward Observatory, Kitt Peak-Spacewatch MPS 202352
2007 03 09.12754 09 27 22.70 +14 22 31.2 21.5 V 691 – Steward Observatory, Kitt Peak-Spacewatch MPS 202352
2007 03 09.14787 09 27 21.95 +14 22 35.2 21.3 V 691 – Steward Observatory, Kitt Peak-Spacewatch MPS 202352
2007 03 09.29773 09 27 16.56 +14 23 03.5 21.1 V G96 – Mt. Lemmon Survey MPS 202352
2007 03 09.30359 09 27 16.34 +14 23 04.4 20.6 V G96 – Mt. Lemmon Survey MPS 202352
2007 03 09.30940 09 27 16.16 +14 23 05.7 21.2 V G96 – Mt. Lemmon Survey MPS 202352
2007 03 09.31521 09 27 15.94 +14 23 06.6 20.6 V G96 – Mt. Lemmon Survey MPS 202352
2007 03 25.23738 09 20 07.72 +15 03 18.3 21.8 V G96 – Mt. Lemmon Survey MPS 205544
2007 03 25.24432 09 20 07.58 +15 03 18.9 21.1 V G96 – Mt. Lemmon Survey MPS 205544
2007 03 25.25125 09 20 07.44 +15 03 19.4 20.8 V G96 – Mt. Lemmon Survey MPS 205545
2007 03 25.26042 09 20 07.08 +15 03 21.7 19.3 V G96 – Mt. Lemmon Survey MPS 205545
2008 02 12.47473 14 05 42.07 -11 36 07.3 20.3 V G96 – Mt. Lemmon Survey MPS 239058
2008 02 12.48417 14 05 42.18 -11 36 07.5 20.8 V G96 – Mt. Lemmon Survey MPS 239058
2008 02 12.49382 14 05 42.25 -11 36 07.9 21.3 V G96 – Mt. Lemmon Survey MPS 239058
2008 02 12.50328 14 05 42.46 -11 36 09.3 20.9 V G96 – Mt. Lemmon Survey MPS 239058
2008 03 12.43536 14 05 48.73 -11 17 26.2 20.9 V G96 – Mt. Lemmon Survey MPS 243413
2008 03 12.44035 14 05 48.62 -11 17 25.6 20.2 V G96 – Mt. Lemmon Survey MPS 243413
2008 03 12.44537 14 05 48.55 -11 17 24.4 20.4 V G96 – Mt. Lemmon Survey MPS 243413
2008 03 12.45040 14 05 48.44 -11 17 24.0 20.1 V G96 – Mt. Lemmon Survey MPS 243413
2008 05 03.27358 13 33 30.96 -07 53 17.3 19.9 V G96 – Mt. Lemmon Survey MPS 249719
2008 05 03.28021 13 33 30.70 -07 53 15.7 20.1 V G96 – Mt. Lemmon Survey MPS 249719
2008 05 03.28694 13 33 30.38 -07 53 14.2 20.1 V G96 – Mt. Lemmon Survey MPS 249719
2008 05 03.29360 13 33 30.13 -07 53 12.4 20.2 V G96 – Mt. Lemmon Survey MPS 249719
2009 06 17.39898 20 48 55.84 -16 00 27.9 20.3 V 691 – Steward Observatory, Kitt Peak-Spacewatch MPS 288947
2009 06 17.41666 20 48 55.64 -16 00 28.7 20.2 V 691 – Steward Observatory, Kitt Peak-Spacewatch MPS 288947
2009 06 17.43434 20 48 55.43 -16 00 29.0 20.1 V 691 – Steward Observatory, Kitt Peak-Spacewatch MPS 288947
2009 07 16.95681 20 34 52.43 -16 57 16.8 19.3 V J75 – OAM Observatory, La Sagra MPS 290080
2009 07 16.97012 20 34 51.81 -16 57 19.6 19.5 V J75 – OAM Observatory, La Sagra MPS 290080
2009 07 16.98340 20 34 51.25 -16 57 21.1 19.1 V J75 – OAM Observatory, La Sagra MPS 290080
2009 07 19.03904 20 33 20.43 -17 03 37.7 18.9 V J75 – OAM Observatory, La Sagra MPS 290080
2009 07 19.05248 20 33 19.83 -17 03 40.6 18.9 V J75 – OAM Observatory, La Sagra MPS 290080
2009 07 19.06581 20 33 19.22 -17 03 43.0 19.1 V J75 – OAM Observatory, La Sagra MPS 290080
2009 07 20.91648 20 31 55.90 -17 09 29.7 18.3 V J75 – OAM Observatory, La Sagra MPS 290080
2009 07 20.92993 20 31 55.34 -17 09 32.6 18.9 V J75 – OAM Observatory, La Sagra MPS 290080
2009 07 20.94341 20 31 54.64 -17 09 35.0 18.9 V J75 – OAM Observatory, La Sagra MPS 290080
2009 07 24.26170 20 29 21.49 -17 20 10.9 19.3   704 – Lincoln Laboratory ETS, New Mexico MPS 291333
2009 07 24.27229 20 29 21.03 -17 20 13.3 18.8   704 – Lincoln Laboratory ETS, New Mexico MPS 291333
2009 07 24.28290 20 29 20.52 -17 20 15.7 19.2   704 – Lincoln Laboratory ETS, New Mexico MPS 291333
2009 07 28.34006 20 26 10.39 -17 33 26.3 18.8 V 703 – Catalina Sky Survey MPS 291333
2009 07 28.34549 20 26 10.14 -17 33 26.0 18.9 V 703 – Catalina Sky Survey MPS 291333
2009 07 28.35095 20 26 09.81 -17 33 27.9 18.8 V 703 – Catalina Sky Survey MPS 291333
2009 07 28.35641 20 26 09.49 -17 33 28.8 18.9 V 703 – Catalina Sky Survey MPS 291333
2009 10 17.13701 20 19 09.80 -18 58 23.5 21.0 V G96 – Mt. Lemmon Survey MPS 300396
2009 10 17.14190 20 19 10.02 -18 58 23.5 20.7 V G96 – Mt. Lemmon Survey MPS 300396
2009 10 17.14696 20 19 10.27 -18 58 22.1 20.9 V G96 – Mt. Lemmon Survey MPS 300396
2009 10 17.15198 20 19 10.48 -18 58 21.1 20.5 V G96 – Mt. Lemmon Survey MPS 300396
